Preview of NWS' New Version of Forecast
This preview is not operational and should not be used for support decisions.
Latest weather observations around

Tuscaloosa Regional Airport (KTCL)

Using English Units (Switch to International System of Units)
Date/ Time (CDT) Wind (mph) Vis. (mi) Weather Sky Cond. Temp (°F) Rel. Humidity Wind Chill (°F) Heat Index (°F) Pressure Precip. (in)
Air Dwpt 6 hour Altimeter (inHg) Sea level (inHg) 1 hr 3 hr 6 hr
Max Min
Apr 21 12:53 E 8 10 Clear CLR 75 50     41%   74 30.21 30.2      
Apr 21 11:53 6 10 Clear CLR 73 50     44%   72 30.23 30.22      
Apr 21 10:53 SSE 10 10 Clear CLR 69 47     45%     30.24 30.24      
Apr 21 09:53 ESE 9 10 Clear CLR 66 44     45%     30.25 30.24      
Apr 21 08:53 E 7 10 Clear CLR 62 45     53%     30.26 30.25      
Apr 21 07:53 ENE 5 10 Clear CLR 56 43     62%     30.27 30.26      
Apr 21 06:53 Calm 9 Clear CLR 47 42     83%     30.26 30.25      
Apr 21 05:53 Calm 10 Clear CLR 45 41     86%     30.24 30.24      
Apr 21 04:53 ENE 3 10 Clear CLR 45 43     93% 44   30.23 30.23      
Apr 21 03:53 ENE 6 10 Clear CLR 48 41     77% 45   30.23 30.22      
Apr 21 02:53 ENE 3 10 Clear CLR 46 42     86% 45   30.23 30.22      
Apr 21 01:53 Calm 10 Clear CLR 47 44     90%     30.24 30.23      
Apr 21 00:53 Calm 10 Clear CLR 49 44     83%     30.25 30.24      
Apr 20 23:53 Calm 10 Clear CLR 50 44     80%     30.25 30.24      
Apr 20 22:53 ENE 3 10 Clear CLR 52 44     74%     30.24 30.24      
Apr 20 21:53 ENE 3 10 Clear CLR 53 45     74%     30.23 30.23      
Apr 20 20:53 NE 3 10 Clear CLR 56 43     62%     30.24 30.23      
Apr 20 19:53 ENE 3 10 Clear CLR 60 42     51%     30.23 30.22      
Apr 20 18:53 ENE 7 10 Clear CLR 69 37     31%     30.22 30.22      
Apr 20 17:53 ENE 8 10 Clear CLR 72 36     27%   70 30.22 30.22      
Apr 20 16:53 E 11 10 Clear CLR 73 36     26%   71 30.23 30.22      
Apr 20 15:53 NE 9 10 Clear CLR 73 36     26%   71 30.24 30.24      
Apr 20 14:53 NNE 5 10 Clear CLR 71 37     29%   69 30.26 30.26      
Apr 20 13:53 ENE 8 10 Clear CLR 70 37     30%     30.28 30.28      
Apr 20 12:53 N 8 10 Clear CLR 68 37     32%     30.31 30.3      
Apr 20 11:53 ENE 8 10 Clear CLR 64 37     37%     30.33 30.33      
Apr 20 10:53 ENE 10 10 Clear CLR 61 37     41%     30.35 30.34      
Apr 20 09:53 NE 9 10 Clear CLR 56 36     47%     30.34 30.34      
Apr 20 08:53 NE 13 10 Clear CLR 53 36     52%     30.33 30.33      
Apr 20 07:53 NE 11 10 Clear CLR 48 36     63% 43   30.33 30.32      
Apr 20 06:53 NNE 8 10 Clear CLR 43 36     76% 38   30.32 30.31      
Apr 20 05:53 N 8 10 Clear CLR 41 35     79% 36   30.3 30.3      
Apr 20 04:53 N 6 10 Clear CLR 43 36     76% 39   30.29 30.29      
Apr 20 03:53 N 7 10 Clear CLR 43 37     79% 39   30.28 30.27      
Apr 20 02:53 N 6 10 Clear CLR 45 37     74% 42   30.27 30.27      
Apr 20 01:53 N 7 10 Clear CLR 46 36     68% 42   30.26 30.26      
Apr 20 00:53 N 9 10 Clear CLR 48 36     63% 44   30.26 30.26      
Apr 19 23:53 NNE 13 10 Clear CLR 50 36     58% 45   30.26 30.26      
Apr 19 22:53 NNE 10 10 Clear CLR 51 36     56%     30.27 30.27      
Apr 19 21:53 NNE 9 10 Clear CLR 52 37     57%     30.27 30.26      
Apr 19 19:53 N 11 10 Clear CLR 56 37     49%     30.25 30.24      
Apr 19 18:53 N 11 10 Clear CLR 60 36     40%     30.22 30.21      
Apr 19 17:53 N 15 10 Clear CLR 64 37     37%     30.2 30.2      
Apr 19 16:53 NNW 9 10 Clear CLR 66 38     36%     30.18 30.18      
Apr 19 15:53 NNW 9 10 Clear CLR 67 39     36%     30.19 30.18      
Apr 19 14:53 N 10 10 Clear CLR 66 39     37%     30.2 30.19      
Apr 19 13:53 N 10 10 Clear CLR 65 39     38%     30.21 30.2      
Apr 19 12:53 NW 11 10 Clear CLR 65 40     40%     30.21 30.2      
Apr 19 11:53 NNW 10 10 Clear CLR 64 41     43%     30.21 30.2      
Apr 19 10:53   10 Clear CLR 61 40     46%     30.2 30.19      
Apr 19 08:53 NW 13 10 Clear CLR 59 41     51%     30.16 30.15      
Apr 19 07:53 N 10 10 Clear CLR 58 42     55%     30.14 30.13      
Apr 19 06:53 6 10 Clear CLR 57 42     57%     30.1 30.1      
Apr 19 05:53 NNW 8 10 Clear CLR 59 42     53%     30.06 30.06      
Apr 19 04:53 N 10 10 Clear CLR 62 46     56%     30.03 30.02      
Apr 19 03:53 NW 9 10 Clear CLR 64 59     84%     30 29.99      
Apr 19 02:53 WNW 7 10 Partly Cloudy SCT070 65 62     90%     29.97 29.96      
Apr 19 01:53 Calm 10 Mostly Cloudy BKN055 66 62     87%     29.97 29.96      
Apr 18 23:53 SW 5 10 Clear CLR 68 61     78%     29.98 29.97      
Apr 18 22:53 WSW 5 10 Cloudy OVC055 71 61     70%   71 29.99 29.98      
Apr 18 21:53 WSW 5 10 Mostly Cloudy BKN060 71 61     70%   71 29.98 29.98      
Apr 18 20:53 W 6 10 Cloudy OVC060 74 61     64%   74 29.97 29.96      
Apr 18 19:53 W 8 10 Cloudy OVC060 76 60     58%   76 29.95 29.95      
Apr 18 18:53 SW 10 10 Cloudy OVC060 78 59     52%   78 29.94 29.93      
Apr 18 17:53 SW 15 10 Clear CLR 80 58     47%   80 29.93 29.93      
Apr 18 16:53 SW 13 10 Clear CLR 82 58     44%   82 29.92 29.92      
Apr 18 15:53 SW 14 10 Clear CLR 81 58     45%   81 29.93 29.92      
Apr 18 14:53 SSW 10 10 Clear CLR 81 58     45%   81 29.95 29.94      
Apr 18 13:53 SSW 16 10 Clear CLR 80 59     49%   81 29.96 29.96      
Apr 18 12:53 SW 14 10 Clear CLR 78 58     50%   78 29.99 29.98      
Jun 11 13:53 7 10 Mostly Clear FEW050 90 67     47%   93 30.1 30.09      
Jun 11 12:53 SE 7 10 Mostly Clear FEW048 88 67     50%   91 30.11 30.1      
Jun 10 23:53 NNE 3 10 Clear CLR 71 66     84%   72 30.07 30.06 0    
Jun 10 11:53 3 10 Partly Cloudy SCT080 86 60     42%   86 30.07 30.06      
Jun 10 09:53 6 10 Clear CLR 81 62     53%   82 30.07 30.06      
Jun 09 15:53 SW 7 10 Clear CLR 82 58     44%   82 29.94 29.93      
Jun 09 01:53 Calm 8 Clear CLR 61 59     93%     29.92 29.91      
Jun 08 10:53 N 8 10 Clear CLR 76 59     56%   76 29.94 29.93      
Jun 06 03:53 NE 3 10 Cloudy OVC007 72 70     93%   73 29.77 29.76      
Jun 05 21:43 NE 5 10 Cloudy BKN009 OVC023 72 71     97%   73 29.8   0